Weather History for Needles, CA

Change the Weather History Date:

Thursday, November 21, 2013

  Actual Average Record
Temperature  
Mean Temperature 62 °F -  
Max Temperature 69 °F 70 °F 83 °F (1950)
Min Temperature 54 °F 46 °F 30 °F (1953)
Degree Days  
Heating Degree Days 4    
Growing Degree Days 12 (Base 50)    
Moisture  
Dew Point 49 °F    
Average Humidity 64    
Maximum Humidity 93    
Minimum Humidity 47    
Precipitation  
Precipitation 0.26 in - - ()
Sea Level Pressure  
Sea Level Pressure 29.82 in    
Wind  
Wind Speed 6 mph (SSW)    
Max Wind Speed 16 mph    
Max Gust Speed 23 mph    
Visibility 10 miles    
Events Rain , Thunderstorm    
Averages and records for this station are not official NWS values.
T = Trace of Precipitation, MM = Missing Value Source: NWS Daily Summary

Daily Weather History Graph

Daily Weather History Graph

Search for Another Location

Airport:

Trip Planner

Search our weather history database for the weather conditions in past years. The results will help you decide how hot, cold, wet, or windy it might be!

Date:

Astronomy

Nov. 21, 2013 Rise Set
Actual Time 6:18 AM PST 4:30 PM PST
Civil Twilight 5:51 AM PST 4:57 PM PST
Nautical Twilight 5:20 AM PST 5:27 PM PST
Astronomical Twilight 4:50 AM PST 5:58 PM PST
Moon 8:09 PM PST (11/21) 9:28 AM PST (11/21)
Length of Visible Light 11h 05m
Length of Day
10h 11m
Waning Gibbous, 84% of the Moon is Illuminated
Nov 21
Waning Gibbous
Nov 25
Last Quarter
Dec 2
New
Dec 9
First Quarter
Dec 17
Full

Hourly Weather History & Observations

Time (PST) Temp. Dew Point Humidity Pressure Visibility Wind Dir Wind Speed Gust Speed Precip Events Conditions
12:56 AM 61.0 °F 42.1 °F 50% 29.75 in 10.0 mi Calm Calm - N/A   Clear
1:56 AM 59.0 °F 42.1 °F 53% 29.76 in 10.0 mi West 5.8 mph - N/A   Clear
2:56 AM 60.1 °F 44.1 °F 55% 29.75 in 10.0 mi West 8.1 mph - N/A   Clear
3:56 AM 60.1 °F 45.0 °F 57% 29.76 in 10.0 mi WSW 9.2 mph - N/A   Clear
4:56 AM 61.0 °F 45.0 °F 56% 29.77 in 10.0 mi West 4.6 mph - N/A   Scattered Clouds
5:56 AM 59.0 °F 46.0 °F 62% 29.78 in 10.0 mi West 5.8 mph - N/A   Clear
6:56 AM 61.0 °F 46.0 °F 58% 29.80 in 10.0 mi WSW 8.1 mph - N/A   Overcast
7:56 AM 62.1 °F 46.9 °F 58% 29.81 in 10.0 mi WSW 4.6 mph - 0.00 in   Overcast
8:56 AM 64.0 °F 46.9 °F 54% 29.82 in 10.0 mi SSW 6.9 mph - N/A   Mostly Cloudy
9:56 AM 64.9 °F 46.0 °F 50% 29.82 in 10.0 mi Calm Calm - N/A   Scattered Clouds
10:56 AM 66.0 °F 46.9 °F 50% 29.81 in 10.0 mi Calm Calm - N/A   Overcast
11:56 AM 68.0 °F 46.9 °F 47% 29.78 in 10.0 mi Variable 3.5 mph - N/A   Partly Cloudy
12:56 PM 69.1 °F 48.0 °F 47% 29.77 in 10.0 mi South 9.2 mph - N/A   Mostly Cloudy
1:56 PM 69.1 °F 48.0 °F 47% 29.77 in 10.0 mi SSW 11.5 mph 19.6 mph N/A   Mostly Cloudy
2:56 PM 69.1 °F 48.0 °F 47% 29.77 in 10.0 mi South 8.1 mph - N/A   Partly Cloudy
3:56 PM 68.0 °F 48.0 °F 49% 29.78 in 10.0 mi South 10.4 mph - N/A   Scattered Clouds
4:56 PM 66.9 °F 50.0 °F 54% 29.78 in 10.0 mi SE 8.1 mph - N/A   Clear
5:31 PM 66.9 °F 50.0 °F 54% 29.84 in 10.0 mi SE 6.9 mph - N/A Thunderstorm Overcast
5:56 PM 66.9 °F 50.0 °F 54% 29.79 in 10.0 mi SSE 6.9 mph - N/A   Overcast
6:56 PM 66.9 °F 48.9 °F 52% 29.80 in 10.0 mi Calm Calm - N/A   Overcast
7:56 PM 64.0 °F 50.0 °F 60% 29.81 in 10.0 mi North 3.5 mph - N/A   Scattered Clouds
8:16 PM 64.0 °F 51.1 °F 63% 29.85 in 10.0 mi North 5.8 mph - N/A Thunderstorm Overcast
8:31 PM 64.0 °F 52.0 °F 65% 29.86 in 10.0 mi Calm Calm - N/A   Mostly Cloudy
8:48 PM 62.1 °F 53.1 °F 72% 29.87 in 10.0 mi NE 8.1 mph - N/A Thunderstorm Mostly Cloudy
8:56 PM 61.0 °F 52.0 °F 72% 29.84 in 10.0 mi East 13.8 mph 19.6 mph N/A Thunderstorm Overcast
9:09 PM 59.0 °F 52.0 °F 78% 29.90 in 5.0 mi SSW 13.8 mph 23.0 mph 0.05 in Rain , Thunderstorm Thunderstorms and Rain
9:33 PM 57.9 °F 54.0 °F 87% 29.90 in 6.0 mi SSE 10.4 mph - 0.17 in Rain Light Rain
9:40 PM 57.9 °F 53.1 °F 84% 29.90 in 7.0 mi SSE 8.1 mph - 0.19 in Rain , Thunderstorm Light Rain
9:56 PM 57.9 °F 53.1 °F 84% 29.86 in 9.0 mi Calm Calm - 0.21 in Rain Light Rain
10:56 PM 55.9 °F 54.0 °F 93% 29.88 in 10.0 mi NE 9.2 mph - 0.02 in Rain Light Rain
11:20 PM 55.9 °F 54.0 °F 93% 29.93 in 8.0 mi NNE 16.1 mph - 0.02 in Rain Light Rain
11:29 PM 55.0 °F 53.1 °F 93% 29.93 in 9.0 mi NNE 16.1 mph - 0.02 in Rain Light Rain
11:42 PM 54.0 °F 52.0 °F 93% 29.93 in 10.0 mi NNE 13.8 mph - 0.03 in Rain Light Rain
11:56 PM 54.0 °F 52.0 °F 93% 29.88 in 10.0 mi NNE 11.5 mph - 0.03 in Rain Light Rain